TimeCST,TemperatureF,Dew PointF,Humidity,Sea Level PressureIn,VisibilityMPH,Wind Direction,Wind SpeedMPH,Gust SpeedMPH,PrecipitationIn,Events,Conditions,WindDirDegrees,DateUTC
12:54 AM,33.1,17.1,52,29.98,10.0,WNW,9.2,-,N/A,,Clear,300,2013-02-17 06:54:00
1:54 AM,30.0,15.1,54,29.97,10.0,NNW,6.9,-,N/A,,Clear,330,2013-02-17 07:54:00
2:54 AM,28.0,15.1,58,29.96,10.0,NNW,9.2,-,N/A,,Clear,340,2013-02-17 08:54:00
3:54 AM,25.0,14.0,63,29.94,10.0,NNW,9.2,-,N/A,,Clear,330,2013-02-17 09:54:00
4:54 AM,25.0,14.0,63,29.93,10.0,WNW,5.8,-,N/A,,Clear,300,2013-02-17 10:54:00
5:54 AM,26.1,14.0,60,29.91,10.0,Calm,Calm,-,N/A,,Clear,0,2013-02-17 11:54:00
6:54 AM,24.1,12.9,62,29.91,10.0,Calm,Calm,-,N/A,,Clear,0,2013-02-17 12:54:00
7:54 AM,21.2,12.2,68,29.87,10.0,West,5.8,-,N/A,,Clear,270,2013-02-17 13:54:00
8:54 AM,30.9,15.1,52,29.91,10.0,West,6.9,-,N/A,,Clear,260,2013-02-17 14:54:00
9:54 AM,42.1,15.1,34,29.86,10.0,WSW,12.7,-,N/A,,Clear,240,2013-02-17 15:54:00
10:54 AM,48.0,14.0,26,29.83,10.0,WSW,13.8,-,N/A,,Clear,250,2013-02-17 16:54:00
11:54 AM,54.0,12.9,20,29.80,10.0,WSW,12.7,-,N/A,,Clear,240,2013-02-17 17:54:00
12:54 PM,60.1,12.9,16,29.75,10.0,SSW,10.4,-,N/A,,Clear,210,2013-02-17 18:54:00
1:54 PM,64.0,10.9,13,29.70,10.0,WSW,12.7,-,N/A,,Clear,240,2013-02-17 19:54:00
2:54 PM,68.0,9.0,10,29.65,10.0,SSW,15.0,19.6,N/A,,Clear,200,2013-02-17 20:54:00
3:54 PM,71.1,3.9,7,29.60,10.0,SSW,17.3,25.3,N/A,,Clear,200,2013-02-17 21:54:00
4:54 PM,66.9,10.0,11,29.58,10.0,South,17.3,-,N/A,,Clear,180,2013-02-17 22:54:00
5:54 PM,59.0,14.0,17,29.57,10.0,South,9.2,-,N/A,,Clear,180,2013-02-17 23:54:00
6:54 PM,53.1,15.1,22,29.57,10.0,SSE,6.9,-,N/A,,Clear,160,2013-02-18 00:54:00
7:54 PM,48.0,19.0,32,29.58,10.0,SE,9.2,-,N/A,,Clear,140,2013-02-18 01:54:00
8:54 PM,46.0,19.9,35,29.54,10.0,SSE,9.2,-,N/A,,Clear,150,2013-02-18 02:54:00
9:54 PM,45.0,24.1,44,29.50,10.0,SSE,8.1,-,N/A,,Clear,160,2013-02-18 03:54:00
10:54 PM,46.0,24.1,42,29.45,10.0,South,16.1,24.2,N/A,,Clear,180,2013-02-18 04:54:00
11:54 PM,43.0,21.9,43,29.42,10.0,SSW,8.1,-,N/A,,Clear,200,2013-02-18 05:54:00